TimeCDT,TemperatureF,Dew PointF,Humidity,Sea Level PressureIn,VisibilityMPH,Wind Direction,Wind SpeedMPH,Gust SpeedMPH,PrecipitationIn,Events,Conditions,WindDirDegrees,DateUTC
12:53 AM,53.1,42.1,66,29.90,10.0,NW,3.5,-,N/A,,Clear,310,2012-10-03 05:53:00
1:53 AM,57.0,42.1,57,29.91,10.0,Calm,Calm,-,N/A,,Clear,0,2012-10-03 06:53:00
2:53 AM,52.0,42.1,69,29.91,10.0,Calm,Calm,-,N/A,,Clear,0,2012-10-03 07:53:00
3:53 AM,50.0,42.1,74,29.91,10.0,Calm,Calm,-,N/A,,Clear,0,2012-10-03 08:53:00
4:53 AM,53.1,41.0,64,29.91,10.0,Calm,Calm,-,N/A,,Clear,0,2012-10-03 09:53:00
5:53 AM,48.0,42.1,80,29.93,10.0,Calm,Calm,-,N/A,,Clear,0,2012-10-03 10:53:00
6:53 AM,50.0,43.0,77,29.93,10.0,Calm,Calm,-,N/A,,Clear,0,2012-10-03 11:53:00
7:53 AM,53.1,45.0,74,29.95,10.0,Calm,Calm,-,N/A,,Clear,0,2012-10-03 12:53:00
8:53 AM,57.0,48.9,74,29.95,10.0,Calm,Calm,-,N/A,,Clear,0,2012-10-03 13:53:00
9:53 AM,64.0,48.0,56,29.96,10.0,SSW,3.5,-,N/A,,Clear,200,2012-10-03 14:53:00
10:53 AM,70.0,45.0,41,29.95,10.0,SW,6.9,-,N/A,,Clear,230,2012-10-03 15:53:00
11:53 AM,72.0,39.9,31,29.94,10.0,SSW,8.1,-,N/A,,Clear,200,2012-10-03 16:53:00
12:53 PM,73.9,39.0,28,29.92,10.0,South,11.5,16.1,N/A,,Clear,180,2012-10-03 17:53:00
1:53 PM,75.0,37.0,25,29.89,10.0,South,11.5,-,N/A,,Clear,190,2012-10-03 18:53:00
2:53 PM,75.9,36.0,23,29.88,10.0,SSW,13.8,20.7,N/A,,Clear,200,2012-10-03 19:53:00
3:53 PM,77.0,39.0,25,29.86,10.0,South,12.7,-,N/A,,Clear,190,2012-10-03 20:53:00
4:53 PM,75.9,37.9,25,29.87,10.0,SSW,12.7,18.4,N/A,,Clear,200,2012-10-03 21:53:00
5:53 PM,73.9,39.0,28,29.88,10.0,South,9.2,-,N/A,,Clear,190,2012-10-03 22:53:00
6:53 PM,69.1,42.1,38,29.90,10.0,South,6.9,-,N/A,,Clear,170,2012-10-03 23:53:00
7:53 PM,64.9,43.0,45,29.91,10.0,South,8.1,-,N/A,,Clear,170,2012-10-04 00:53:00
8:53 PM,63.0,43.0,48,29.93,10.0,South,6.9,-,N/A,,Clear,190,2012-10-04 01:53:00
9:53 PM,63.0,43.0,48,29.93,10.0,South,9.2,-,N/A,,Clear,180,2012-10-04 02:53:00
10:53 PM,61.0,43.0,52,29.95,10.0,South,6.9,-,N/A,,Clear,170,2012-10-04 03:53:00
11:53 PM,57.9,44.1,60,29.96,10.0,South,6.9,-,N/A,,Clear,170,2012-10-04 04:53:00